Temperature
19 19 19 18 18 18 18 18 18 18 17 17 17 17 17 17 17 17 17 17 17 17 17 16 17 17 16 16 16 16 16 16 16 15 15 14 14 14 14 14 13 13 13
19 19 19 18 18 18 18 17 17 17 17 17 17 17 17 17 17 17 17 16 16 16 16 16 16 16 16 16 16 16 16 16 15 15 14 14 14 13 13 13 13 12 12
19 19 19 18 18 18 18 17 17 17 17 17 17 17 17 17 16 16 16 16 16 16 16 16 16 16 16 15 15 15 15 15 15 15 14 13 13 13 13 12 12 12 11
19 19 18 18 18 18 17 17 17 17 17 17 17 17 17 16 16 16 16 16 16 16 16 16 15 15 15 15 15 15 15 15 14 14 13 13 13 12 12 12 11 11 11
19 18 18 18 18 17 17 17 17 17 16 17 17 16 16 16 16 16 16 15 15 15 15 15 15 15 15 15 14 14 14 14 14 13 13 12 12 12 12 11 11 11 10
19 18 18 18 17 17 17 17 17 16 16 16 16 16 16 16 16 16 15 15 15 15 15 15 15 14 14 14 14 14 14 14 13 13 12 12 12 12 11 11 11 10 10
19 18 18 18 17 17 17 17 16 16 16 16 16 16 16 16 16 15 15 15 15 14 14 14 14 14 14 14 14 13 13 13 13 12 12 12 12 11 11 11 10 10 10
18 18 18 17 17 17 17 17 16 16 16 16 16 15 15 15 15 15 15 14 14 14 14 14 13 13 13 13 13 13 13 12 12 12 12 11 11 11 11 10 10 10 9
18 18 17 17 17 17 17 16 16 16 15 15 15 15 15 15 14 14 14 14 14 14 13 13 13 13 12 12 12 12 12 12 11 11 11 11 11 10 10 10 10 9 9
18 18 17 17 17 17 16 16 16 15 15 15 15 15 14 14 14 14 14 13 13 13 13 13 12 12 12 12 12 12 11 11 11 11 10 10 10 10 10 10 9 9 9
17 17 17 17 16 16 16 16 15 15 15 14 14 14 14 14 14 13 13 13 13 13 12 12 12 12 11 11 11 11 11 10 10 10 10 10 9 9 9 9 9 9 9
17 17 16 16 16 16 16 15 15 15 14 14 14 14 14 14 13 13 13 13 12 12 12 12 11 11 11 11 11 10 10 10 10 9 9 9 9 9 9 9 9 9 8
17 16 16 16 15 15 15 15 14 14 14 14 13 13 13 13 13 13 12 12 12 12 11 11 11 10 10 10 10 10 9 9 9 9 9 8 8 8 8 8 8 8 8
16 16 15 15 15 15 14 14 14 14 13 13 13 13 13 13 12 12 12 11 11 11 10 10 10 10 9 9 9 9 9 9 9 9 8 8 8 8 8 8 8 7 7
16 15 15 15 14 14 14 13 13 13 13 13 13 12 12 12 12 12 11 11 11 10 10 10 9 9 9 9 9 9 9 9 8 8 8 8 8 8 7 7 8 7 7
15 15 14 14 14 13 13 13 13 13 13 12 12 12 12 12 11 11 10 10 10 10 9 9 9 9 8 8 8 8 8 8 8 8 8 8 8 8 7 7 7 7 7
15 14 14 13 13 13 13 13 12 12 12 12 12 11 11 11 11 10 10 10 9 9 9 9 9 8 8 8 8 8 8 8 8 8 8 7 7 7 7 7 7 7 7
14 13 13 13 13 12 12 12 12 12 11 11 11 11 11 10 10 10 10 9 9 9 9 8 8 8 8 8 8 8 8 7 7 7 7 7 7 7 7 7 7 7 7
13 13 13 13 12 12 12 11 11 11 11 11 10 10 10 10 9 9 9 9 8 8 8 8 8 8 8 8 8 8 7 7 7 7 7 7 7 7 7 7 7 7 7
13 12 12 12 12 12 11 11 11 11 10 10 10 10 9 9 9 9 8 8 8 8 8 8 8 8 8 8 7 7 7 7 7 7 7 7 7 7 7 7 7 7 7
12 12 12 11 11 11 11 11 11 10 10 10 10 9 9 9 9 8 8 8 8 8 8 8 8 8 7 7 7 7 7 7 7 7 7 6 6 6 6 6 6 6 6
12 11 11 11 11 11 11 11 10 10 10 9 9 9 9 8 8 8 8 8 8 8 8 8 8 8 7 7 7 7 7 7 7 7 6 6 6 6 6 6 6 6 6
11 11 11 11 11 11 10 10 10 10 9 9 9 9 8 8 8 8 8 8 8 8 8 8 8 7 7 7 7 7 7 7 7 6 6 6 6 6 6 6 6 6 6
11 11 10 10 10 10 10 10 10 9 9 9 9 9 8 8 8 8 8 8 8 8 8 7 7 7 7 7 7 6 6 6 6 6 6 6 6 6 6 6 6 6 6
11 11 10 10 10 10 10 9 9 9 9 9 9 9 9 8 8 8 8 8 8 8 7 7 7 7 7 7 6 6 6 6 6 6 6 6 6 6 6 6 6 6 6
11 11 10 10 10 10 9 9 9 9 9 9 9 9 8 8 8 8 8 8 8 7 7 7 7 7 7 6 6 6 6 6 6 6 6 5 5 5 5 5 5 5 6
Wind_Speed
6 5 4 4 4 3 2 2 2 2 2 2 2 2 2 3 3 3 3 3 3 2 2 2 2 2 1 1 1 1 2 3 3 2 2 3 4 7 8 11 12 12 12
5 5 4 4 4 3 3 2 2 2 2 1 1 1 2 2 2 2 2 2 1 2 2 2 2 1 1 1 1 1 2 3 4 5 3 3 3 6 7 7 9 11 12
6 6 5 4 4 4 3 2 2 2 1 1 1 1 1 0 1 1 1 1 1 1 1 1 1 1 1 1 1 1 1 3 4 5 4 3 3 4 6 6 8 9 11
7 6 6 5 5 4 4 2 2 2 1 1 1 0 0 0 1 1 1 1 1 1 1 1 2 1 0 1 1 2 3 4 5 5 5 4 4 4 5 5 5 4 5
7 6 6 5 5 5 4 3 2 2 2 2 2 2 2 2 2 1 1 2 2 2 3 3 4 5 5 3 2 2 2 3 4 5 5 4 4 4 4 4 6 5 4
6 6 6 6 6 5 4 3 3 3 2 3 3 3 4 3 5 5 3 2 3 3 4 4 4 5 7 9 9 8 6 4 4 4 4 5 4 3 3 5 5 5 3
6 6 6 6 5 5 4 4 3 3 3 3 3 4 4 5 7 7 6 4 4 4 4 3 4 5 6 6 8 10 10 10 6 4 4 4 4 4 5 5 4 4 3
6 6 6 5 5 5 4 4 4 3 3 3 3 4 4 6 7 7 6 6 5 6 6 5 5 5 5 5 7 8 8 7 7 5 5 4 4 4 4 5 6 4 3
7 6 5 5 5 5 5 4 4 4 4 3 3 4 5 6 7 6 5 5 5 6 6 6 6 7 7 7 8 8 8 7 11 13 11 10 10 9 6 3 4 5 3
6 6 5 5 5 5 5 5 4 4 4 4 4 4 5 5 6 6 4 4 5 5 6 7 10 8 7 7 7 7 7 6 6 7 7 7 7 8 7 3 2 3 4
6 6 5 5 5 5 5 4 4 4 4 4 5 5 5 6 6 7 5 3 5 5 5 5 5 7 8 8 7 6 7 6 5 6 5 5 5 5 5 7 5 3 3
6 6 5 5 4 5 5 5 4 4 4 4 5 5 5 5 6 7 8 7 5 6 5 5 5 7 8 8 6 6 6 4 4 4 5 4 5 5 4 7 8 9 7
6 6 6 5 4 5 5 5 4 3 3 4 4 4 5 5 6 9 10 10 10 7 6 8 8 8 7 6 6 4 2 1 3 4 5 5 4 4 5 5 6 7 6
6 6 6 5 5 5 3 2 3 2 2 2 3 4 5 5 5 5 6 7 9 8 7 8 7 5 4 4 4 2 1 2 4 4 5 5 4 3 3 3 3 4 4
6 6 5 5 6 5 5 5 4 4 2 1 2 3 4 4 4 5 5 5 5 6 6 5 4 3 3 2 2 2 2 3 3 4 4 4 4 3 3 2 1 2 3
5 5 4 5 5 6 6 6 12 9 10 10 8 6 5 8 10 10 8 9 9 8 5 4 4 3 3 3 3 2 2 2 3 3 3 3 3 3 3 2 1 1 2
5 4 4 5 5 5 5 5 5 6 10 12 11 10 10 10 11 10 9 8 6 5 3 3 3 3 3 3 3 3 2 2 2 2 3 2 2 3 3 2 2 1 2
4 4 4 4 5 5 4 4 5 5 4 4 6 9 10 10 9 9 8 6 4 3 3 3 3 3 3 2 2 3 3 3 2 2 2 2 2 2 2 2 2 1 1
4 3 3 4 4 4 4 4 5 5 5 5 5 5 6 7 7 6 5 3 4 4 4 3 3 3 3 2 2 2 3 3 2 2 2 2 1 1 1 1 2 2 1
3 4 3 4 4 4 4 4 5 5 5 6 6 6 5 5 5 5 4 3 3 3 3 3 3 3 3 3 3 2 2 3 3 2 3 2 1 1 1 1 1 2 2
4 5 5 4 4 4 4 4 4 5 5 5 5 6 7 5 5 6 5 4 3 3 3 3 3 3 3 3 3 3 3 3 3 2 2 2 2 2 2 2 1 1 1
4 4 4 4 3 3 3 3 4 5 5 5 5 6 8 5 4 4 5 4 3 3 3 3 3 3 3 3 3 3 3 3 3 2 2 3 3 2 2 2 2 1 2
4 5 5 3 4 4 4 4 4 4 4 4 5 6 6 5 4 4 4 4 4 3 4 3 3 3 4 6 6 4 3 3 3 2 2 2 2 2 2 2 2 3 3
4 5 5 4 4 4 4 3 4 4 4 4 4 5 6 5 5 4 4 4 4 4 5 4 4 4 5 5 6 6 4 4 3 3 3 2 2 2 2 2 3 4 3
4 4 4 4 4 4 4 3 3 3 3 4 4 5 5 6 5 4 4 4 4 4 5 6 5 6 7 7 7 6 6 6 4 1 2 2 2 3 3 3 3 3 3
4 4 4 4 4 4 4 4 4 4 4 4 4 4 4 5 5 5 5 4 5 5 5 6 7 8 9 9 9 9 10 8 6 5 3 3 3 3 3 3 5 4 5
Wind_Direction
166 165 164 161 164 160 167 183 181 194 215 209 201 199 202 202 210 204 207 200 210 220 230 229 233 252 264 277 263 230 192 167 174 158 123 115 117 117 115 117 115 111 108
150 148 151 150 147 150 161 170 176 188 200 204 201 194 214 210 205 201 214 216 217 222 226 230 238 220 201 252 256 239 181 171 163 157 147 133 119 124 122 121 120 115 112
148 145 142 146 144 143 140 139 144 151 170 174 161 184 221 259 240 201 190 209 209 217 201 209 221 188 214 246 219 188 160 153 141 146 148 141 132 129 122 119 114 114 117
145 143 141 144 141 137 132 129 130 129 137 126 119 122 114 76 56 108 144 173 154 95 68 63 57 56 262 226 183 142 133 134 138 144 143 144 141 138 137 137 124 114 117
145 147 144 141 138 135 130 128 125 121 114 92 72 59 50 66 49 58 112 124 112 98 83 81 83 84 73 73 91 94 125 143 146 148 151 146 151 161 165 154 135 123 110
147 144 138 138 134 132 135 134 122 107 85 78 61 60 57 52 53 64 85 93 101 104 102 96 95 87 84 79 77 73 78 114 136 144 151 153 157 160 151 144 144 148 153
147 142 140 144 143 140 142 130 120 108 95 86 77 82 79 61 62 69 70 85 86 89 93 90 86 86 87 90 83 74 63 63 80 123 144 156 157 164 157 153 157 147 147
146 148 149 151 143 134 128 123 120 112 105 97 92 92 89 73 65 63 67 87 82 75 71 73 81 73 69 87 91 81 70 59 68 77 99 117 132 144 161 159 151 129 113
153 151 150 145 137 134 128 118 113 114 110 104 97 95 95 81 62 64 69 100 93 83 75 69 79 80 65 89 101 99 92 79 75 84 91 101 107 108 109 131 153 158 151
147 143 140 137 135 132 126 119 116 116 115 107 97 89 91 88 67 60 61 111 106 98 88 77 71 77 74 86 108 109 105 100 99 95 89 94 102 102 97 96 138 159 146
134 133 134 131 128 130 124 120 123 123 120 113 106 98 92 91 77 54 46 98 116 114 105 94 79 77 81 84 97 106 120 122 118 114 110 103 95 87 82 76 72 99 115
130 131 128 128 133 132 127 129 130 133 133 130 127 118 104 92 77 69 64 69 99 110 108 106 101 94 91 91 95 107 117 118 126 121 112 105 99 95 90 87 87 85 92
134 132 125 120 109 118 133 139 143 155 158 149 150 140 127 116 97 85 78 76 82 94 100 108 115 112 106 100 101 99 97 114 113 107 102 98 98 105 112 108 100 101 101
134 131 129 129 124 113 110 125 136 139 150 147 144 137 131 129 128 120 108 101 99 104 110 110 107 99 101 110 114 110 83 78 99 105 111 117 124 133 138 142 149 153 134
138 138 142 140 134 114 90 52 61 57 56 108 123 127 142 143 134 135 141 134 131 125 130 133 130 129 139 146 135 123 116 110 104 112 121 129 130 123 115 105 111 136 132
147 151 154 147 137 136 124 90 55 61 61 61 71 92 97 114 121 112 107 109 116 133 135 143 151 156 152 145 139 134 124 119 121 124 122 125 130 136 135 136 135 115 113
143 152 154 148 145 146 143 142 125 81 64 59 67 87 107 120 117 115 115 114 125 138 149 157 151 150 149 151 149 137 125 112 106 113 119 120 129 134 134 138 146 142 116
154 153 154 149 150 153 153 152 148 146 128 92 72 91 112 119 122 124 124 123 144 167 179 166 158 154 150 151 143 129 125 121 126 128 123 123 131 139 143 148 127 83 83
154 150 149 145 151 150 148 150 147 143 139 133 124 110 116 123 126 136 150 171 179 180 184 174 162 154 157 147 127 126 131 135 141 135 126 126 131 158 171 149 122 125 212
140 129 139 146 152 149 152 156 152 149 149 147 149 146 148 155 159 166 185 205 204 192 179 159 157 155 149 143 138 146 151 147 152 160 143 154 178 208 201 203 174 189 217
152 146 152 159 157 154 162 162 154 150 152 153 154 152 160 177 179 180 186 196 201 198 175 166 170 172 165 162 161 176 184 164 162 180 165 176 197 207 222 211 210 234 244
152 155 163 166 153 149 153 153 149 149 150 149 146 151 168 191 190 183 188 192 193 194 186 185 195 186 166 163 166 181 188 174 178 192 186 187 196 210 221 224 216 222 248
158 156 156 149 138 138 143 141 140 145 151 157 156 160 177 196 194 193 191 185 185 194 189 197 202 184 169 168 172 177 198 194 186 183 192 206 208 214 225 230 242 253 256
149 152 151 147 149 156 153 149 150 155 162 171 176 171 177 191 203 199 194 189 187 189 193 205 213 182 167 170 177 180 185 198 206 205 196 219 227 229 229 228 243 254 254
153 146 147 148 150 150 153 155 157 161 171 184 189 185 188 196 200 197 195 194 193 200 202 204 203 193 184 183 181 179 169 169 170 195 200 227 254 252 255 252 246 254 256
140 136 139 143 152 161 166 167 170 177 188 199 198 191 198 202 197 196 197 198 201 206 206 208 206 201 195 196 191 182 177 177 183 200 228 247 254 258 259 261 262 260 261
Height
1527 1528 1529 1531 1532 1533 1534 1534 1535 1536 1538 1538 1539 1540 1541 1541 1542 1543 1544 1545 1546 1547 1548 1549 1549 1550 1550 1551 1552 1552 1553 1554 1555 1556 1557 1558 1559 1560 1561 1562 1563 1563 1564
1526 1527 1528 1529 1530 1531 1532 1533 1534 1535 1536 1536 1537 1538 1538 1539 1540 1540 1541 1542 1543 1543 1544 1545 1546 1546 1547 1547 1548 1548 1549 1550 1551 1552 1553 1555 1557 1558 1558 1560 1560 1561 1562
1525 1525 1526 1527 1528 1529 1531 1532 1532 1533 1534 1535 1535 1535 1536 1536 1537 1538 1538 1539 1540 1541 1541 1542 1542 1543 1543 1544 1544 1545 1546 1546 1547 1548 1550 1552 1554 1555 1556 1558 1558 1559 1561
1524 1525 1526 1526 1527 1529 1529 1531 1531 1532 1532 1533 1533 1534 1534 1535 1535 1535 1536 1537 1537 1538 1538 1539 1539 1540 1540 1541 1541 1542 1542 1543 1544 1545 1546 1548 1551 1552 1554 1555 1556 1558 1559
1524 1525 1525 1526 1527 1528 1529 1530 1531 1531 1532 1532 1532 1532 1533 1532 1533 1533 1534 1534 1535 1535 1536 1536 1536 1537 1537 1538 1539 1539 1540 1540 1541 1542 1544 1546 1548 1549 1551 1552 1554 1556 1558
1523 1524 1525 1526 1527 1527 1528 1529 1530 1530 1531 1531 1531 1531 1531 1531 1531 1531 1532 1533 1533 1533 1534 1534 1534 1535 1535 1536 1537 1537 1538 1538 1539 1540 1541 1543 1545 1547 1548 1550 1551 1554 1555
1522 1523 1524 1525 1526 1527 1528 1528 1529 1529 1530 1530 1530 1530 1530 1530 1530 1531 1531 1531 1531 1532 1532 1533 1533 1533 1534 1534 1535 1536 1536 1537 1538 1539 1539 1540 1542 1543 1546 1547 1549 1551 1553
1521 1522 1523 1524 1525 1526 1527 1528 1528 1528 1528 1529 1529 1529 1529 1530 1530 1530 1530 1531 1531 1531 1531 1532 1532 1532 1533 1533 1534 1534 1535 1536 1537 1537 1538 1539 1541 1542 1544 1546 1548 1550 1552
1519 1521 1522 1523 1524 1525 1526 1526 1527 1527 1527 1528 1528 1529 1529 1529 1530 1530 1530 1530 1530 1530 1531 1531 1532 1532 1533 1533 1533 1533 1534 1535 1536 1537 1538 1539 1540 1542 1543 1545 1547 1549 1550
1518 1519 1520 1522 1523 1524 1524 1525 1526 1526 1527 1527 1527 1528 1528 1528 1529 1530 1530 1530 1530 1530 1530 1531 1531 1532 1532 1533 1534 1534 1534 1535 1536 1537 1538 1539 1540 1541 1542 1544 1545 1547 1548
1516 1518 1519 1520 1521 1522 1523 1524 1525 1525 1526 1526 1526 1527 1528 1528 1529 1529 1530 1530 1529 1530 1530 1530 1531 1532 1532 1533 1534 1534 1535 1536 1537 1538 1539 1539 1540 1541 1542 1543 1545 1546 1547
1515 1516 1517 1519 1520 1521 1522 1522 1523 1524 1525 1525 1526 1526 1527 1527 1528 1529 1529 1529 1529 1530 1530 1531 1531 1532 1533 1534 1534 1535 1536 1537 1538 1539 1540 1540 1541 1542 1542 1543 1544 1545 1547
1513 1515 1516 1517 1518 1519 1520 1521 1522 1523 1524 1524 1525 1525 1526 1526 1527 1528 1528 1529 1529 1529 1530 1531 1532 1532 1533 1534 1535 1536 1537 1538 1539 1540 1540 1541 1542 1543 1544 1544 1545 1546 1547
1512 1513 1514 1516 1517 1518 1519 1520 1521 1522 1523 1524 1524 1524 1524 1525 1526 1527 1527 1528 1528 1529 1530 1531 1532 1533 1534 1535 1536 1537 1538 1539 1540 1540 1541 1542 1542 1543 1544 1545 1546 1547 1547
1510 1512 1513 1514 1516 1517 1518 1519 1520 1521 1522 1523 1523 1523 1524 1524 1525 1526 1526 1527 1528 1529 1530 1530 1532 1533 1534 1535 1536 1537 1538 1539 1540 1541 1542 1542 1543 1544 1545 1546 1547 1548 1548
1508 1510 1512 1513 1514 1515 1516 1517 1518 1519 1520 1521 1522 1522 1522 1523 1524 1525 1526 1527 1528 1529 1530 1530 1531 1533 1534 1535 1536 1537 1538 1539 1540 1541 1542 1543 1544 1545 1546 1546 1547 1548 1549
1506 1508 1510 1511 1512 1513 1514 1515 1516 1518 1518 1519 1520 1520 1521 1522 1523 1524 1525 1526 1527 1528 1530 1531 1532 1533 1535 1536 1537 1537 1538 1539 1540 1541 1542 1543 1544 1545 1546 1546 1547 1548 1549
1505 1507 1508 1509 1511 1512 1513 1514 1515 1515 1516 1517 1518 1519 1520 1521 1522 1523 1524 1525 1527 1528 1529 1530 1532 1533 1534 1535 1536 1537 1538 1539 1540 1541 1542 1543 1544 1545 1545 1546 1547 1547 1548
1504 1506 1507 1508 1509 1510 1511 1512 1513 1514 1515 1516 1517 1518 1519 1520 1521 1522 1523 1525 1526 1527 1528 1530 1531 1532 1533 1535 1536 1537 1538 1538 1540 1541 1542 1542 1543 1544 1545 1545 1546 1547 1547
1503 1504 1506 1507 1508 1509 1510 1511 1512 1513 1514 1515 1515 1517 1518 1519 1520 1521 1523 1524 1525 1527 1528 1529 1530 1531 1533 1534 1535 1536 1537 1538 1539 1540 1541 1542 1543 1544 1544 1545 1545 1546 1546
1502 1503 1505 1506 1507 1508 1509 1510 1511 1512 1513 1514 1514 1515 1516 1518 1519 1520 1522 1523 1524 1526 1527 1528 1529 1530 1531 1532 1533 1534 1536 1537 1537 1538 1539 1540 1541 1542 1543 1544 1544 1545 1545
1501 1502 1504 1505 1506 1507 1508 1509 1510 1511 1512 1513 1514 1515 1516 1517 1519 1520 1521 1522 1523 1524 1526 1527 1528 1529 1530 1531 1532 1533 1534 1535 1536 1537 1538 1539 1540 1541 1542 1542 1543 1543 1544
1500 1501 1503 1504 1505 1506 1507 1508 1509 1510 1511 1512 1513 1513 1514 1516 1517 1519 1520 1521 1522 1523 1524 1525 1526 1527 1528 1529 1530 1531 1532 1533 1534 1535 1536 1537 1538 1539 1540 1540 1541 1541 1542
1500 1501 1502 1503 1504 1505 1506 1507 1508 1509 1510 1511 1512 1513 1514 1515 1516 1517 1519 1520 1520 1522 1522 1523 1524 1525 1525 1526 1527 1528 1529 1530 1532 1533 1533 1534 1535 1536 1537 1537 1538 1539 1539
1500 1501 1502 1502 1503 1504 1505 1506 1507 1508 1509 1510 1511 1512 1513 1514 1515 1516 1517 1518 1519 1519 1520 1521 1522 1522 1523 1524 1525 1526 1527 1528 1529 1530 1531 1531 1532 1533 1534 1535 1535 1536 1536
1499 1500 1501 1502 1503 1504 1505 1505 1506 1507 1508 1509 1510 1511 1512 1513 1514 1514 1515 1516 1516 1517 1518 1518 1519 1520 1520 1521 1522 1523 1524 1525 1526 1527 1527 1528 1529 1530 1531 1531 1532 1533 1533